Total_Precipitation_Accumulation
0.00 0.01 0.02 0.02 0.02 0.03 0.05 0.07 0.11 0.15 0.14 0.17 0.33 0.51 0.54 0.70 0.97 1.24 1.54 1.82 2.14 2.41 2.83 3.28 3.35 3.55 3.85 4.41 4.73 4.80 4.92 4.80 4.54 4.12 3.67 3.47 3.36 3.30 3.09 2.84 2.60 2.50 2.43 2.50
0.01 0.03 0.01 0.01 0.02 0.03 0.06 0.09 0.13 0.15 0.14 0.15 0.30 0.49 0.60 0.93 1.21 1.26 1.39 1.54 1.74 2.18 2.57 2.90 3.04 3.08 3.44 4.01 4.41 4.53 4.29 4.15 4.02 3.76 3.60 3.56 3.70 3.39 3.06 2.85 2.60 2.42 2.39 2.44
0.03 0.03 0.02 0.02 0.02 0.03 0.05 0.06 0.11 0.16 0.15 0.20 0.31 0.61 0.81 1.05 1.18 1.21 1.28 1.39 1.53 1.89 2.21 2.51 2.58 2.67 2.89 3.00 3.23 3.39 3.54 3.42 3.31 3.27 3.23 3.27 3.42 3.14 2.81 2.61 2.47 2.26 2.16 2.11
0.03 0.03 0.03 0.04 0.04 0.04 0.06 0.07 0.06 0.08 0.15 0.27 0.41 0.92 1.15 1.07 1.12 1.26 1.28 1.30 1.53 1.85 1.83 1.92 2.10 2.27 2.54 2.65 2.79 2.83 2.86 2.96 2.95 2.96 2.83 2.65 2.54 2.40 2.24 2.24 2.20 2.19 2.09 1.97
0.05 0.04 0.03 0.05 0.05 0.04 0.05 0.05 0.06 0.09 0.18 0.29 0.41 0.71 1.09 1.41 1.46 1.25 1.19 1.14 1.35 1.51 1.42 1.41 1.57 1.70 1.89 2.04 2.26 2.40 2.48 2.55 2.61 2.61 2.46 2.41 2.22 2.15 2.15 2.11 2.07 2.00 1.93 1.89
0.05 0.05 0.04 0.04 0.04 0.04 0.04 0.06 0.12 0.23 0.41 0.64 0.54 0.66 1.05 1.40 1.63 1.33 1.16 1.10 1.20 1.17 1.16 1.28 1.38 1.42 1.55 1.75 1.92 2.06 2.16 2.18 2.27 2.30 2.27 2.19 2.10 2.06 2.00 1.91 1.87 1.85 1.84 1.74
0.12 0.12 0.10 0.06 0.05 0.06 0.06 0.13 0.45 0.81 1.10 1.12 0.72 0.75 1.11 1.12 1.13 1.13 1.10 1.14 1.13 1.04 0.98 1.00 1.08 1.20 1.35 1.52 1.62 1.68 1.80 1.87 1.85 1.88 1.88 1.83 1.86 1.90 1.74 1.63 1.61 1.57 1.44 1.35
0.17 0.24 0.15 0.09 0.09 0.09 0.10 0.15 0.50 0.76 0.82 0.92 0.80 1.07 1.40 1.10 1.01 0.95 1.01 1.09 1.04 0.90 0.83 0.85 0.96 1.00 1.07 1.20 1.35 1.42 1.54 1.62 1.69 1.71 1.66 1.60 1.59 1.56 1.43 1.47 1.43 1.34 1.16 1.09
0.10 0.11 0.08 0.08 0.09 0.11 0.15 0.17 0.23 0.43 0.48 0.69 0.89 1.17 1.33 1.01 0.97 1.06 1.16 1.14 1.06 0.84 0.70 0.67 0.73 0.79 0.78 0.82 0.94 1.10 1.37 1.47 1.55 1.57 1.49 1.37 1.33 1.32 1.26 1.30 1.38 1.29 1.23 1.15
0.06 0.05 0.06 0.07 0.09 0.12 0.15 0.15 0.19 0.36 0.52 0.72 0.85 1.20 1.47 1.32 1.26 1.24 1.28 1.10 0.81 0.64 0.53 0.51 0.52 0.53 0.57 0.63 0.74 0.88 1.05 1.14 1.22 1.33 1.30 1.09 1.17 1.25 1.23 1.20 1.17 1.20 1.20 1.19
0.05 0.04 0.06 0.09 0.12 0.14 0.19 0.21 0.28 0.39 0.42 0.64 0.98 1.17 1.10 1.10 1.11 1.17 1.14 0.92 0.66 0.55 0.45 0.45 0.46 0.49 0.53 0.57 0.67 0.79 0.94 1.05 1.07 1.13 1.19 1.11 1.09 1.15 1.19 1.15 1.11 1.12 1.12 1.14
0.07 0.06 0.10 0.16 0.18 0.17 0.17 0.19 0.28 0.42 0.41 0.45 0.69 0.88 0.61 0.63 0.70 0.78 0.80 0.67 0.55 0.53 0.49 0.52 0.53 0.55 0.55 0.64 0.71 0.78 0.88 0.99 1.03 1.13 1.24 1.27 1.20 1.16 1.17 1.11 1.02 0.98 0.93 0.95
0.11 0.11 0.17 0.37 0.48 0.30 0.19 0.17 0.19 0.24 0.27 0.29 0.51 0.68 0.46 0.52 0.62 0.74 0.80 0.81 0.75 0.66 0.52 0.50 0.56 0.62 0.62 0.70 0.80 0.86 0.97 1.01 1.05 1.20 1.33 1.39 1.26 1.15 1.16 1.10 0.96 0.88 0.84 0.85
0.11 0.14 0.19 0.40 0.52 0.40 0.30 0.23 0.19 0.22 0.31 0.28 0.31 0.46 0.47 0.53 0.61 0.69 0.75 0.78 0.71 0.61 0.51 0.47 0.53 0.58 0.66 0.74 0.78 0.79 0.81 0.89 0.99 1.03 1.16 1.28 1.25 1.10 0.98 0.94 0.91 0.89 0.88 0.86
0.09 0.12 0.12 0.16 0.23 0.30 0.32 0.27 0.21 0.17 0.21 0.34 0.32 0.36 0.45 0.54 0.54 0.63 0.67 0.61 0.62 0.56 0.55 0.54 0.56 0.59 0.64 0.66 0.63 0.61 0.56 0.62 0.71 0.80 0.88 0.97 0.94 0.91 0.87 0.80 0.73 0.76 0.83 0.81
0.16 0.17 0.16 0.15 0.18 0.22 0.25 0.25 0.18 0.14 0.12 0.15 0.27 0.44 0.47 0.49 0.53 0.55 0.56 0.59 0.60 0.67 0.71 0.71 0.70 0.71 0.63 0.60 0.55 0.51 0.48 0.52 0.63 0.73 0.77 0.84 0.86 0.80 0.73 0.70 0.66 0.66 0.73 0.81
0.34 0.30 0.27 0.24 0.21 0.26 0.31 0.25 0.19 0.14 0.12 0.14 0.30 0.55 0.51 0.50 0.54 0.59 0.65 0.71 0.62 0.60 0.64 0.69 0.67 0.65 0.53 0.50 0.50 0.50 0.52 0.53 0.56 0.66 0.77 0.84 0.89 0.86 0.73 0.64 0.70 0.70 0.76 0.82
0.43 0.46 0.39 0.34 0.40 0.55 0.37 0.23 0.20 0.21 0.20 0.20 0.25 0.34 0.41 0.51 0.53 0.48 0.53 0.65 0.66 0.62 0.66 0.67 0.62 0.59 0.55 0.51 0.50 0.48 0.46 0.48 0.52 0.58 0.66 0.76 0.84 0.84 0.81 0.77 0.79 0.85 0.91 0.94
0.33 0.48 0.49 0.47 0.55 0.48 0.40 0.33 0.31 0.35 0.35 0.32 0.40 0.38 0.41 0.47 0.49 0.51 0.42 0.45 0.46 0.58 0.59 0.62 0.64 0.68 0.71 0.63 0.65 0.64 0.59 0.59 0.65 0.70 0.77 0.75 0.80 0.88 0.93 0.92 0.93 0.98 1.03 1.04
0.41 0.52 0.64 0.59 0.73 0.74 0.62 0.50 0.44 0.46 0.74 0.55 0.54 0.55 0.57 0.57 0.67 0.74 0.52 0.38 0.41 0.50 0.54 0.62 0.61 0.57 0.64 0.67 0.77 0.83 0.83 0.82 0.88 0.95 1.02 1.03 1.08 1.11 1.08 1.17 1.27 1.28 1.28 1.20
0.84 0.85 0.77 0.76 0.88 0.90 0.71 0.59 0.53 0.88 1.04 0.65 0.62 0.68 0.67 0.69 0.77 0.72 0.60 0.48 0.54 0.47 0.48 0.56 0.66 0.63 0.63 0.69 0.80 0.93 1.01 0.98 1.04 1.10 1.19 1.29 1.38 1.50 1.58 1.70 1.65 1.59 1.57 1.55
0.97 1.08 1.07 1.08 1.22 1.12 0.72 0.69 0.93 1.10 0.88 0.89 0.79 0.72 0.67 0.63 0.69 0.72 0.67 0.60 0.52 0.52 0.50 0.55 0.67 0.66 0.67 0.73 0.82 0.91 1.02 1.12 1.25 1.34 1.46 1.56 1.69 1.73 1.82 2.15 2.20 2.21 2.12 1.88
1.07 1.13 1.14 1.15 1.20 0.95 0.81 0.95 1.00 0.99 1.00 1.05 1.00 0.80 0.73 0.64 0.63 0.68 0.61 0.51 0.42 0.41 0.45 0.50 0.65 0.73 0.72 0.78 0.98 1.16 1.16 1.25 1.41 1.53 1.67 1.80 1.88 1.98 2.11 2.24 2.28 2.30 2.25 2.01
1.13 0.96 1.08 1.17 1.22 1.05 0.92 0.89 0.97 0.96 0.93 0.95 0.94 1.00 0.99 0.84 0.72 0.72 0.65 0.53 0.45 0.42 0.45 0.48 0.60 0.75 0.91 0.99 1.14 1.33 1.31 1.38 1.52 1.62 1.71 1.79 1.88 1.98 2.13 2.28 2.20 2.13 2.08 2.02
1.04 1.10 1.23 1.34 1.28 1.16 1.05 1.02 1.16 1.15 1.03 1.06 1.02 1.04 1.11 0.91 0.73 0.64 0.61 0.60 0.58 0.57 0.59 0.59 0.66 0.81 1.03 1.20 1.31 1.37 1.39 1.52 1.67 1.69 1.76 1.84 1.88 1.90 2.01 2.08 2.15 2.04 1.97 1.92
0.99 1.15 1.32 1.39 1.29 1.39 1.28 1.07 1.16 1.25 1.12 1.17 1.16 1.08 0.90 0.82 0.76 0.68 0.64 0.63 0.62 0.64 0.65 0.68 0.75 0.86 1.02 1.19 1.36 1.47 1.56 1.66 1.77 1.81 1.77 1.83 1.92 1.98 2.02 2.00 1.88 1.77 1.71 1.61